Location: Harwich
(41.7160°N, 69.9939°W)
Time: 01:24:10
(UTC+02:00)

AO-27 - Pass Details

Date: 23 September 2024
Orbit: 783 x 796 km, 98.8° (Epoch: 04 October)

Event Time Altitude Azimuth Distance (km) Brightness Sun altitude
Exits shadow 03:08:50 51° 15° (NNE) 991 8.1 -28.3°
Drops below altitude 10° 03:12:51 10° 352° (N) 2,362 10.5 -28.9°
Sets 03:15:11 0° 350° (N) 3,293 11.4 -29.3°
